Location: Unspecified
(0.0000°N, 0.0000°E)
Time: 01:46:07
(UTC+00:00)

DSAT - Pass Details

Date: 11 June 2023
Orbit: 498 x 655 km, 97.5° (Epoch: 28 September)

Event Time Altitude Azimuth Distance (km) Brightness Sun altitude
Rises 04:53:18 0° 12° (NNE) 2,980 ? -15.2°
Reaches altitude 10° 04:55:33 10° 12° (NNE) 2,063 ? -14.7°
Maximum altitude 05:00:05 88° 104° (ESE) 651 ? -13.7°
Drops below altitude 10° 05:04:29 10° 191° (S) 2,008 ? -12.7°
Enters shadow 05:06:24 - 191° (S) 2,794 ? -12.2°
